Temp
11 11 11 11 10 9 10 10 10 10 10 10 10 10 10 9 9 9 9 8 8 8 8 7 7 7 6
9 9 9 10 10 10 10 10 9 10 10 10 10 10 9 9 9 8 8 8 7 7 7 7 7 7 6
8 8 8 9 8 9 9 10 10 10 10 10 9 9 8 8 8 7 7 7 7 6 6 6 6 6 6
8 8 7 7 7 7 7 7 8 8 8 9 8 8 8 7 7 6 6 6 6 6 5 5 5 5 5
7 7 7 6 6 5 6 6 6 6 6 7 7 7 7 7 6 6 6 6 6 5 4 4 4 4 4
6 5 5 5 5 5 5 4 3 4 5 7 7 7 7 6 6 6 5 4 4 4 3 3 3 3 3
4 4 4 4 4 4 3 2 2 2 3 5 5 6 5 6 6 5 4 3 2 1 1 1 1 2 2
4 3 3 3 3 2 2 1 2 2 1 2 2 2 3 4 4 2 1 0 -0 0 0 0 0 1 2
3 2 2 2 1 1 1 -0 -0 1 -0 -2 -1 0 1 -0 -0 -1 -1 -1 -0 -2 -2 -1 -1 0 1
2 1 1 1 -0 -1 -1 -2 -4 -4 -3 -3 -3 -4 -5 -4 -4 -4 -3 -2 -4 -2 -2 -1 -1 -1 -1
1 0 -0 -1 -1 -2 -2 -3 -4 -5 -5 -7 -6 -7 -7 -6 -6 -5 -5 -5 -2 -2 -2 -2 -2 -2 -3
-1 -0 -0 -1 -1 -1 -2 -3 -3 -3 -4 -6 -7 -8 -7 -7 -7 -7 -7 -5 -3 -3 -3 -3 -3 -3 -3
-1 -2 -2 -2 -2 -2 -3 -3 -3 -3 -4 -5 -7 -8 -8 -8 -8 -8 -7 -5 -4 -4 -4 -4 -3 -3 -3
-3 -3 -3 -3 -3 -3 -3 -4 -4 -3 -4 -5 -6 -8 -8 -8 -8 -7 -6 -7 -6 -6 -6 -5 -4 -4 -5
-4 -4 -4 -4 -5 -5 -5 -6 -6 -6 -5 -5 -6 -7 -7 -7 -7 -7 -7 -7 -6 -7 -7 -6 -5 -5 -5
-6 -6 -6 -6 -6 -6 -7 -7 -7 -7 -7 -7 -7 -7 -6 -6 -7 -8 -9 -9 -8 -7 -7 -7 -6 -6 -6
-7 -7 -8 -8 -8 -8 -8 -9 -8 -9 -9 -9 -9 -9 -10 -10 -8 -8 -8 -8 -8 -8 -8 -8 -8 -7 -7
Height
1546 1545 1542 1541 1540 1539 1538 1535 1532 1530 1527 1524 1521 1518 1515 1511 1509 1505 1502 1499 1496 1490 1489 1484 1482 1478 1474
1538 1537 1536 1534 1530 1528 1527 1525 1522 1521 1519 1515 1512 1508 1505 1503 1500 1497 1493 1489 1486 1482 1479 1476 1472 1467 1464
1529 1529 1527 1525 1521 1518 1516 1514 1512 1510 1508 1506 1503 1500 1496 1493 1490 1486 1482 1479 1476 1472 1469 1465 1462 1458 1454
1519 1519 1519 1518 1515 1511 1507 1506 1503 1501 1499 1496 1493 1490 1488 1484 1480 1476 1473 1470 1466 1463 1460 1456 1453 1449 1446
1515 1512 1511 1508 1506 1504 1499 1496 1495 1493 1487 1486 1483 1480 1478 1475 1471 1467 1463 1460 1457 1453 1450 1447 1444 1441 1438
1506 1507 1504 1501 1499 1496 1493 1489 1483 1485 1478 1474 1476 1471 1469 1465 1461 1457 1454 1451 1448 1444 1441 1438 1435 1432 1429
1502 1501 1497 1494 1492 1489 1487 1484 1480 1475 1471 1461 1465 1462 1460 1457 1454 1451 1447 1444 1440 1437 1434 1431 1428 1424 1422
1496 1494 1491 1489 1487 1484 1481 1478 1474 1471 1468 1457 1456 1453 1449 1448 1446 1444 1441 1438 1434 1431 1427 1424 1421 1418 1415
1490 1488 1486 1484 1482 1480 1476 1471 1466 1464 1462 1457 1452 1445 1441 1440 1440 1438 1436 1433 1428 1425 1421 1418 1413 1410 1407
1487 1484 1482 1481 1478 1475 1473 1468 1464 1459 1459 1454 1449 1445 1435 1433 1433 1431 1426 1424 1421 1418 1415 1411 1407 1402 1399
1482 1480 1478 1477 1475 1472 1469 1465 1462 1459 1456 1452 1446 1444 1441 1431 1425 1423 1421 1417 1413 1410 1407 1404 1400 1397 1393
1478 1476 1474 1472 1470 1467 1464 1461 1458 1454 1451 1449 1444 1441 1436 1428 1421 1418 1415 1412 1408 1404 1401 1398 1395 1392 1389
1474 1472 1470 1467 1464 1462 1460 1456 1453 1450 1446 1443 1439 1436 1432 1425 1418 1414 1407 1404 1402 1399 1394 1391 1388 1385 1382
1469 1467 1465 1462 1460 1456 1453 1449 1445 1444 1442 1438 1435 1430 1425 1421 1415 1408 1406 1401 1397 1394 1389 1385 1382 1380 1377
1464 1462 1459 1457 1455 1452 1448 1444 1441 1436 1434 1432 1429 1424 1419 1415 1409 1406 1401 1397 1394 1389 1385 1380 1378 1374 1372
1460 1458 1455 1453 1450 1448 1444 1440 1436 1432 1428 1425 1421 1415 1411 1407 1405 1400 1396 1392 1388 1384 1380 1375 1371 1370 1368
1456 1454 1451 1448 1445 1441 1438 1435 1431 1428 1425 1422 1417 1412 1405 1400 1398 1398 1392 1388 1383 1379 1377 1373 1368 1366 1363
Wind_Speed
37 39 39 38 34 30 31 29 32 35 32 31 31 33 34 34 34 35 37 39 40 40 39 40 43 44 43
37 36 35 36 38 40 38 35 32 31 32 35 36 34 34 33 35 34 37 38 38 39 40 42 41 38 38
36 35 35 38 40 40 43 40 39 38 36 34 33 31 30 30 32 32 32 35 35 35 36 36 36 36 35
34 31 28 34 37 38 38 37 39 35 34 36 38 36 36 35 35 33 36 38 38 37 35 35 35 35 32
32 31 33 33 32 32 35 38 39 38 39 36 38 38 39 40 41 40 40 39 38 36 34 33 32 31 30
32 30 31 30 33 33 34 35 36 32 36 39 35 36 35 35 35 37 36 32 31 29 28 27 30 30 30
26 25 25 26 28 30 29 30 32 34 35 41 33 33 31 30 29 29 30 22 17 17 19 22 24 24 24
22 22 23 24 24 25 26 28 29 29 27 36 30 30 34 34 26 18 16 16 21 22 28 28 27 27 27
19 20 20 20 21 22 22 24 29 30 19 22 31 39 37 22 20 11 12 22 29 24 23 25 28 29 29
13 15 16 17 18 19 21 22 23 25 17 29 31 30 25 24 23 32 33 33 28 28 25 25 26 27 28
12 13 14 14 15 16 18 20 23 23 25 23 26 26 24 32 32 38 32 36 37 32 26 24 24 25 26
13 15 16 17 18 19 19 21 22 23 22 17 22 23 26 32 38 35 38 36 32 27 23 27 26 25 24
15 16 18 19 20 21 20 22 23 23 23 17 18 20 25 30 33 35 38 35 22 27 27 27 26 23 23
17 18 19 20 21 23 24 25 26 24 23 21 17 20 24 27 31 35 29 24 29 26 26 25 24 21 19
18 19 20 22 22 23 24 24 24 27 27 25 23 25 26 28 29 24 26 29 25 27 28 26 21 19 19
18 20 21 22 23 22 23 23 25 25 26 26 28 30 30 28 18 26 27 29 32 29 26 26 25 18 16
19 20 21 22 23 23 24 24 26 26 26 27 26 24 27 30 32 24 30 31 30 28 27 24 24 20 16
Wind_Direction
291 296 300 301 302 303 306 301 299 305 295 302 298 296 291 286 287 290 293 292 290 286 287 290 290 291 296
294 296 299 299 301 307 309 308 302 306 301 297 300 295 293 292 296 298 298 292 290 291 291 290 291 292 294
295 296 294 306 303 302 308 307 304 306 305 304 307 298 295 293 293 292 291 292 291 292 292 290 291 292 289
286 279 283 292 293 296 297 295 296 298 299 296 299 298 296 298 298 296 295 294 295 297 296 296 296 294 290
281 282 287 289 290 294 296 295 294 296 293 293 294 296 296 294 294 295 294 295 296 294 294 292 292 291 290
284 290 290 292 293 296 299 300 305 300 298 298 303 302 302 300 297 296 302 303 300 298 297 294 290 288 286
285 286 293 296 299 301 303 301 300 304 308 306 313 308 305 303 309 308 305 303 297 305 312 312 308 303 295
290 295 298 300 301 302 303 303 302 308 314 309 315 312 311 315 315 315 305 297 306 301 304 307 306 303 300
300 300 301 303 303 306 310 311 315 318 324 306 313 314 319 326 321 300 271 292 312 319 313 308 308 304 300
297 302 305 307 312 313 314 314 317 325 308 314 321 329 325 322 308 317 313 324 322 321 317 306 302 301 298
315 317 317 314 309 308 308 307 306 301 307 312 311 320 310 309 311 316 320 314 323 326 322 309 304 302 301
317 314 314 314 313 314 314 311 309 309 312 308 304 315 315 309 311 311 313 319 324 323 321 314 307 301 297
320 320 321 321 319 314 310 310 310 315 317 314 303 301 304 310 309 311 320 325 325 322 319 313 311 306 303
324 322 322 321 321 319 319 318 316 317 318 318 309 297 300 302 308 315 323 321 327 329 321 316 310 304 295
325 323 322 322 322 322 321 321 320 321 318 317 316 312 307 306 310 320 322 323 324 325 322 317 315 310 302
326 323 322 321 320 321 320 320 322 323 321 324 326 321 315 315 320 322 323 321 324 322 322 320 314 313 304
322 321 320 322 323 325 325 323 322 322 323 326 328 325 322 316 315 315 318 319 317 317 317 317 310 311 302